• In Russia
  • List of Countries
  • For 7 days
  • Water Temperature
  • Satellite Maps
  • Weather Map
  • Weather Widgets
  • user-avatar
    Login

    Hourly Weather Reykjavík

    Today, 24 September, Monday

    Time Temperature Precipitation Wind Pressure Humidity
    00:00 +2°C° 0.5 mm 8 mps 761 mmHg 86%
    01:00 +3°C° 0.5 mm 9 mps 760 mmHg 88%
    02:00 +3°C° 0.5 mm 10 mps 759 mmHg 89%
    03:00 +5°C° 1.1 mm 10 mps 758 mmHg 90%
    04:00 +4°C° 1.1 mm 11 mps 756 mmHg 91%
    05:00 +4°C° 1.1 mm 12 mps 755 mmHg 92%
    06:00 +5°C° 2 mm 12 mps 754 mmHg 91%
    07:00 +5°C° 2 mm 12 mps 754 mmHg 89%
    08:00 +5°C° 2 mm 12 mps 753 mmHg 87%
    09:00 +5°C° 0.4 mm 13 mps 753 mmHg 80%
    10:00 +4°C° 0.4 mm 13 mps 753 mmHg 73%
    11:00 +4°C° 0.4 mm 14 mps 754 mmHg 66%
    12:00 +4°C° 0.4 mm 14 mps 754 mmHg 66%
    13:00 +4°C° 0.4 mm 14 mps 754 mmHg 66%
    14:00 +4°C° 0.4 mm 14 mps 754 mmHg 66%
    15:00 +3°C° 0.4 mm 13 mps 754 mmHg 68%
    16:00 +3°C° 0.4 mm 13 mps 754 mmHg 69%
    17:00 +3°C° 0.4 mm 13 mps 754 mmHg 71%
    18:00 +2°C° 0.2 mm 12 mps 754 mmHg 72%
    19:00 +2°C° 0.2 mm 11 mps 755 mmHg 73%
    20:00 +2°C° 0.2 mm 10 mps 755 mmHg 73%
    21:00 +1°C° 0.1 mm 9 mps 754 mmHg 75%
    22:00 +1°C° 0.1 mm 8 mps 754 mmHg 77%
    23:00 +2°C° 0.1 mm 6 mps 754 mmHg 79%

    Tomorrow, 25 September, Tuesday

    Time Temperature Precipitation Wind Pressure Humidity
    00:00 +2°C° 0.4 mm 7 mps 753 mmHg 82%
    01:00 +2°C° 0.4 mm 7 mps 751 mmHg 85%
    02:00 +3°C° 0.4 mm 7 mps 750 mmHg 88%
    03:00 +2°C° 1.7 mm 7 mps 748 mmHg 89%
    04:00 +2°C° 1.7 mm 7 mps 747 mmHg 91%
    05:00 +2°C° 1.7 mm 7 mps 745 mmHg 92%
    06:00 +2°C° 0.7 mm 7 mps 744 mmHg 92%
    07:00 +2°C° 0.7 mm 6 mps 743 mmHg 92%
    08:00 +2°C° 0.7 mm 6 mps 743 mmHg 92%
    09:00 +2°C° 0.4 mm 8 mps 743 mmHg 87%
    10:00 +2°C° 0.4 mm 9 mps 743 mmHg 82%
    11:00 +3°C° 0.4 mm 11 mps 744 mmHg 77%
    12:00 +3°C° 0.2 mm 10 mps 744 mmHg 76%
    13:00 +5°C° 0.2 mm 9 mps 744 mmHg 76%
    14:00 +5°C° 0.2 mm 8 mps 745 mmHg 76%
    15:00 +5°C° 0.3 mm 7 mps 745 mmHg 78%
    16:00 +5°C° 0.3 mm 6 mps 745 mmHg 80%
    17:00 +5°C° 0.3 mm 5 mps 745 mmHg 82%
    18:00 +4°C° 0.6 mm 6 mps 745 mmHg 84%
    19:00 +4°C° 0.6 mm 6 mps 745 mmHg 86%
    20:00 +4°C° 0.6 mm 6 mps 745 mmHg 87%
    21:00 +4°C° 0.3 mm 6 mps 745 mmHg 88%
    22:00 +5°C° 0.3 mm 5 mps 745 mmHg 89%
    23:00 +3°C° 0.3 mm 5 mps 745 mmHg 90%

    Day after tomorrow, 26 September, Wednesday

    Time Temperature Precipitation Wind Pressure Humidity
    00:00 +3°C° 0.4 mm 6 mps 745 mmHg 89%
    01:00 +3°C° 0.4 mm 6 mps 745 mmHg 88%
    02:00 +3°C° 0.4 mm 6 mps 745 mmHg 88%
    03:00 +3°C° 0.3 mm 6 mps 746 mmHg 88%
    04:00 +3°C° 0.3 mm 6 mps 746 mmHg 87%
    05:00 +3°C° 0.3 mm 6 mps 746 mmHg 87%
    06:00 +3°C° 0 mm 6 mps 747 mmHg 87%
    07:00 +3°C° 0 mm 5 mps 748 mmHg 88%
    08:00 +3°C° 0 mm 5 mps 749 mmHg 88%
    09:00 +5°C° 0 mm 5 mps 750 mmHg 86%
    10:00 +6°C° 0 mm 5 mps 751 mmHg 84%
    11:00 +6°C° 0 mm 5 mps 752 mmHg 82%
    12:00 +6°C° 0.1 mm 5 mps 753 mmHg 81%
    13:00 +5°C° 0.1 mm 6 mps 753 mmHg 81%
    14:00 +5°C° 0.1 mm 6 mps 754 mmHg 80%
    15:00 +5°C° 0 mm 6 mps 754 mmHg 80%
    16:00 +5°C° 0 mm 6 mps 755 mmHg 81%
    17:00 +4°C° 0 mm 6 mps 755 mmHg 81%
    18:00 +5°C° 0 mm 5 mps 756 mmHg 82%
    19:00 +3°C° 0 mm 5 mps 756 mmHg 83%
    20:00 +3°C° 0 mm 4 mps 757 mmHg 85%
    21:00 +3°C° 0.1 mm 4 mps 757 mmHg 85%
    22:00 +3°C° 0.1 mm 4 mps 757 mmHg 86%
    23:00 +3°C° 0.1 mm 4 mps 758 mmHg 86%

    27 September, Thursday

    Time Temperature Precipitation Wind Pressure Humidity
    00:00 +2°C° 0.1 mm 5 mps 758 mmHg 86%
    01:00 +2°C° 0.1 mm 5 mps 758 mmHg 86%
    02:00 +3°C° 0.1 mm 5 mps 758 mmHg 85%
    03:00 +2°C° 0.1 mm 5 mps 758 mmHg 84%
    04:00 +2°C° 0.1 mm 6 mps 759 mmHg 82%
    05:00 +2°C° 0.1 mm 6 mps 759 mmHg 80%
    06:00 +2°C° 0.1 mm 6 mps 759 mmHg 81%
    07:00 +3°C° 0.1 mm 5 mps 760 mmHg 81%
    08:00 +3°C° 0.1 mm 5 mps 760 mmHg 82%
    09:00 +3°C° 0.1 mm 5 mps 761 mmHg 78%
    10:00 +5°C° 0.1 mm 5 mps 761 mmHg 75%
    11:00 +5°C° 0.1 mm 5 mps 762 mmHg 72%
    12:00 +5°C° 0 mm 6 mps 762 mmHg 71%
    13:00 +5°C° 0 mm 6 mps 763 mmHg 71%
    14:00 +5°C° 0 mm 6 mps 763 mmHg 70%
    15:00 +5°C° 0.1 mm 6 mps 763 mmHg 73%
    16:00 +4°C° 0.1 mm 6 mps 764 mmHg 75%
    17:00 +5°C° 0.1 mm 5 mps 764 mmHg 78%
    18:00 +3°C° 0 mm 5 mps 764 mmHg 80%
    19:00 +3°C° 0 mm 5 mps 765 mmHg 81%
    20:00 +2°C° 0 mm 5 mps 765 mmHg 83%
    21:00 +2°C° 0 mm 5 mps 765 mmHg 84%
    22:00 +2°C° 0 mm 5 mps 765 mmHg 85%
    23:00 +2°C° 0 mm 5 mps 765 mmHg 86%

    28 September, Friday

    Time Temperature Precipitation Wind Pressure Humidity
    00:00 +3°C° 0.4 mm 6 mps 765 mmHg 88%
    01:00 +3°C° 0.4 mm 7 mps 764 mmHg 90%
    02:00 +4°C° 0.4 mm 8 mps 763 mmHg 92%
    03:00 +3°C° 2.3 mm 9 mps 762 mmHg 94%
    04:00 +5°C° 2.3 mm 10 mps 761 mmHg 95%
    05:00 +4°C° 2.3 mm 12 mps 760 mmHg 96%
    06:00 +4°C° 2.8 mm 12 mps 759 mmHg 95%
    07:00 +4°C° 2.8 mm 12 mps 758 mmHg 95%
    08:00 +4°C° 2.8 mm 13 mps 758 mmHg 94%
    09:00 +4°C° 3.3 mm 13 mps 757 mmHg 93%
    10:00 +4°C° 3.3 mm 14 mps 756 mmHg 92%
    11:00 +4°C° 3.3 mm 14 mps 755 mmHg 91%
    12:00 +4°C° 3 mm 14 mps 754 mmHg 91%
    13:00 +5°C° 3 mm 14 mps 752 mmHg 92%
    14:00 +5°C° 3 mm 14 mps 751 mmHg 92%
    15:00 +5°C° 1 mm 14 mps 750 mmHg 91%
    16:00 +6°C° 1 mm 14 mps 749 mmHg 91%
    17:00 +7°C° 1 mm 13 mps 749 mmHg 91%
    18:00 +5°C° 0.2 mm 13 mps 748 mmHg 89%
    19:00 +5°C° 0.2 mm 13 mps 748 mmHg 87%
    20:00 +4°C° 0.2 mm 13 mps 748 mmHg 86%
    21:00 +4°C° 0.3 mm 13 mps 747 mmHg 86%
    22:00 +4°C° 0.3 mm 12 mps 747 mmHg 86%
    23:00 +4°C° 0.3 mm 12 mps 747 mmHg 87%

    29 September, Saturday

    Time Temperature Precipitation Wind Pressure Humidity
    00:00 +4°C° 0.4 mm 11 mps 746 mmHg 86%
    01:00 +5°C° 0.4 mm 9 mps 746 mmHg 86%
    02:00 +4°C° 0.4 mm 8 mps 746 mmHg 86%
    03:00 +4°C° 0.2 mm 7 mps 746 mmHg 87%
    04:00 +4°C° 0.2 mm 7 mps 746 mmHg 87%
    05:00 +4°C° 0.2 mm 6 mps 746 mmHg 88%
    06:00 +4°C° 0.1 mm 6 mps 747 mmHg 88%
    07:00 +4°C° 0.1 mm 6 mps 747 mmHg 88%
    08:00 +6°C° 0.1 mm 5 mps 748 mmHg 88%
    09:00 +6°C° 0 mm 5 mps 749 mmHg 84%
    10:00 +6°C° 0 mm 5 mps 750 mmHg 81%
    11:00 +6°C° 0 mm 5 mps 751 mmHg 77%
    12:00 +5°C° 0 mm 6 mps 752 mmHg 75%
    13:00 +5°C° 0 mm 6 mps 753 mmHg 73%
    14:00 +5°C° 0 mm 7 mps 753 mmHg 70%
    15:00 +5°C° 0 mm 7 mps 755 mmHg 71%
    16:00 +4°C° 0 mm 7 mps 756 mmHg 72%
    17:00 +3°C° 0 mm 6 mps 757 mmHg 73%
    18:00 +3°C° 0 mm 6 mps 759 mmHg 75%
    19:00 +2°C° 0 mm 5 mps 760 mmHg 78%
    20:00 +1°C° 0 mm 5 mps 761 mmHg 80%
    21:00 0°C° 0 mm 4 mps 762 mmHg 80%
    22:00 0°C° 0 mm 4 mps 763 mmHg 80%
    23:00 +1°C° 0 mm 3 mps 764 mmHg 80%
    Show more

    3.3.7123123